Regional Weather Roundup
Issued by NWS

Home | Current Version | Previous Version | Text Only | Print | Product List | Glossary On
Versions: 1 2 3 4 5 6 7 8 9 10 11 12 13 14 15 16 17 18 19 20 21 22 23 24 25 26 27 28 29 30 31 32 33 34 35 36 37 38 39 40 41 42 43 44 45 46 47 48 49 50
000
ASHW40 PHFO 230332
RWRHI

WEATHER ROUNDUP FOR HAWAII
NATIONAL WEATHER SERVICE HONOLULU HI
500 PM HST TUE AUG 22 2017

THIS IS AN AUTOMATED REPORT THAT HAS NOT BEEN QUALITY CONTROLLED.

NOTE..."FAIR" INDICATES FEW OR NO CLOUDS BELOW 12,000 FEET WITH NO
SIGNIFICANT WEATHER AND/OR OBSTRUCTIONS TO VISIBILITY.

* - THESE SITES REPORT LIMITED FIELDS
# - BUOY DATA PROVIDED BY PACIFIC ISLANDS OCEAN OBSERVING SYSTEM.

HIZ001>004-230400-
KAUAI-NIIHAU-

CITY           SKY/WX    TMP DP  RH WIND       PRES   REMARKS
LIHUE APT      CLOUDY    84  74  71 NE15      30.01F HX  91
PORT ALLEN*      N/A     86 N/A N/A NE21G26     N/A
POIPU*           N/A     86 N/A N/A NE9G20      N/A
PRINCEVILLE*     N/A     81 N/A N/A E8G14       N/A
KOKOLE POINT*  NOT AVBL
MOLOAA DAIRY*    N/A     81  73  78 E7G15       N/A
WAIMEA HTS*    NOT AVBL
PUU OPAE*      NOT AVBL
PUU LUA*       NOT AVBL
MAKAHA RIDGE*    N/A     82  70  65 SW2G9       N/A
$$

HIZ005>011-230400-
OAHU-

CITY           SKY/WX    TMP DP  RH WIND       PRES   REMARKS
HONOLULU       PTSUNNY   80  70  71 NE14      29.98S
KALAELOA       CLOUDY    86  70  58 NE8       29.99S HX  90
KANEOHE MCB    PTSUNNY   83  74  74 E14G21    29.97
WHEELER FIELD  PTSUNNY   81  71  72 E12         N/A
BELLOWS*         N/A    N/A N/A N/A E16G22      N/A
KAHUKU*          N/A    N/A N/A N/A NE8G15      N/A
WHEELER*       NOT AVBL
WAIANAE HARBOR NOT AVBL
DILLINGHAM*      N/A     86  73  66 SW9G18      N/A  HX  93
KAHUKU TRN*      N/A     81  73  78 W9G18       N/A
KAWAILOA*        N/A     75  72  88 E10G18      N/A
KII*           NOT AVBL
MAKUA RANGE*     N/A     90  73  58 NW5G12      N/A  HX  98
OAHU FOREST NW NOT AVBL
SCHOFIELD BRK*   N/A     82  75  78 MISG        N/A
SCHOFIELD S*   NOT AVBL
WAIANAE VLY*   NOT AVBL
KUAOKALA*      NOT AVBL
HONOULIUULI*   NOT AVBL
MOKUOLOE IS*   NOT AVBL
PALEHUA*       NOT AVBL
WAIAWA PHB*    NOT AVBL
$$

HIZ012>013-230400-
MOLOKAI-

CITY           SKY/WX    TMP DP  RH WIND       PRES   REMARKS
MOLOKAI AIRPT  SUNNY     83  69  62 NE16G23   29.99R
KALAUPAPA      NOT AVBL
MAKAPULAPAI*     N/A     84  70  61 E18G30      N/A
MOLOKAI 1*     NOT AVBL
PUU ALII*        N/A     65  65  99 NE3G12      N/A
$$

HIZ016-230400-
KAHOOLAWE-

CITY           SKY/WX    TMP DP  RH WIND       PRES   REMARKS
KAHOOLAWE*     NOT AVBL
HAKIOAWA*        N/A     78  70  76 MISG        N/A
HONOKANAIA*      N/A     85  69  58 NE20G35     N/A
KANELOA*         N/A     82  70  65 E21G35    30.04F
KEALIALALO*    NOT AVBL
LUA MAKIKA*    NOT AVBL
$$

HIZ014>015-230400-
LANAI-

CITY           SKY/WX    TMP DP  RH WIND       PRES   REMARKS
LANAI CITY     FAIR      79  68  69 NE15G21   30.04S
LANAI 1*       NOT AVBL
$$

HIZ017>028-230400-
MAUI-

CITY           SKY/WX    TMP DP  RH WIND       PRES   REMARKS
KAHULUI        MOSUNNY   86  67  52 E24G32    29.95S
KAPALUA-W MAUI MOSUNNY   84  66  54 NE16G24   29.99
HANA AIRPORT   CLOUDY    81  72  74 E1        30.04S
HANA*          NOT AVBL
HALEAKALA SUMM NOT AVBL
MAALAEA BAY*     N/A     86 N/A N/A N22G31      N/A
HALEAKALA*     NOT AVBL
KAUPO GAP*     NOT AVBL
KULA 1*          N/A     68  62  80 W5          N/A
$$

HIZ023>026-230400-
BIG ISLAND OF HAWAII COAST AND LOWER SLOPES-

CITY           SKY/WX    TMP DP  RH WIND       PRES   REMARKS
KAILUA KONA    MOSUNNY   84  73  69 SW7       29.93S HX  90
HILO           CLOUDY    81  72  74 NE8       30.00S
HONOKAA*         N/A     77 N/A N/A VRB1        N/A
KAWAIHAE MWT*    N/A     86 N/A N/A W8          N/A
KAWAIHAE*        N/A     82 N/A N/A W9        29.93F
SOUTH POINT*     N/A     75 N/A N/A N12G18      N/A
UPOLU AIRPORT* NOT AVBL
KAMUELA*         N/A     73  64  73 NE16G28   30.08S
HAKALAU*         N/A     67  56  69 NE3         N/A
KALOKO-HONOKO*   N/A     84  75  74 W5G10     29.93S HX  92
PALI 2*          N/A     75  64  69 S18G26      N/A
KEALAKOMO*       N/A     84  68  58 N17G24      N/A
KAUPULEHU*     NOT AVBL
KAPAPALA*        N/A     76  71  85 SE3G12      N/A
LOWER KAHUKU*    N/A     66  66 100 N2G9        N/A
PUHE CS*         N/A     88  72  58 W7          N/A  HX  94
PUHO CS*         N/A     86  72  62 W3G9        N/A  HX  92
PTA KEAMUKU*     N/A     72  64  78 NE12G20     N/A
WAIKOLOA*      NOT AVBL
$$

HIZ027>028-230400-
BIG ISLAND OF HAWAII INTERIOR AND SUMMMITS-

CITY           SKY/WX    TMP DP  RH WIND       PRES   REMARKS
BRADSHAW FIELD NOT AVBL
MK VISITOR CEN   N/A     57  30  35 E10         N/A
MAUNA KEA*       N/A     41   9  26 NE13        N/A
MAUNA LOA*       N/A    N/A N/A N/A MISG        N/A
MAUNA LOA 1*   NOT AVBL
PTA KIPUKA*      N/A     66  63  88 S3G12       N/A
PTA RANGE 17*    N/A     64  64 100 SE7         N/A
PTA WEST*        N/A     72  64  78 W5G10       N/A
NENE CABIN*      N/A     59  57  94 E6G12       N/A
AHUMOA*        NOT AVBL
PTA PORTABLE*  NOT AVBL
PUU MALI*        N/A     66  46  48 E18G25      N/A
$$

HIC003-230400-
NORTHWEST ISLANDS-

CITY           SKY/WX    TMP DP  RH WIND       PRES   REMARKS
MIDWAY ISLAND  LGT RAIN  82  75  78 E15       30.11S
MIDWAY NOS*      N/A     81 N/A N/A MISG      30.09F
FRENCH FRIGATE NOT AVBL
$$

PHZ110>124-180-230400-
BUOY REPORTS

STATION/POSITION TIME  TEMP    WIND        PRES    WAVE   SWELL
                       AIR SEA DIR/SP/G            HT/PER HT/DIR
                 (UTC) (F)     (DEG/KT/KT) (MB)    (FT/S) (FT/D)
BUOY 51001       0310   81 82   80/ 12/ 16 1016.6
BUOY 51101       0250   81 82   80/ 14/ 16 1017.0F   6/ 7   5/ 80
BUOY 51100       NOT AVBL
BUOY 51002       0310   80 81   80/ 19/ 25 1012.6
BUOY 51003       0250   82 83   70/ 12/ 14 1013.7F   5/ 7   5/ 80
BUOY 51004       0250      81   70/ 14/ 16 1013.6S   7/ 8   5/ 80
WAIMEA BAY#      0302      79                N/A     3/ 7
MOKAPU POINT#    0304      81                N/A     6/ 7   2/150
LANAI#           NOT AVBL
BARBERS PT 2#    NOT AVBL
PAUWELA#         0239      80                N/A     6/ 8   2/ 80
HILO#            0257      81                N/A     6/ 7   2/120
KANEOHE BAY#     NOT AVBL
KANEOHE BAY 2#   NOT AVBL
HANALEI#         0252      82                N/A     5/ 8
KAHULUI HARBOR   0300   82 82   50/ 15/ 22 1014.5
HONOLULU HARBOR  0300   82 81   90/  4/ 10 1016.1
PEARL HARBOR#    0300      81                N/A     3/11   2/160
KILO NALU        NOT AVBL
HILO HARBOR      0300   80 80   20/  9/ 12 1015.4
MOKUOLOE         0236   82 83   90/ 11/ 17 1015.8F
NAWILIWILI       0300   81      60/ 11/ 14 1016.0
WHOTS BUOY       NOT AVBL
BUOY 51028       NOT AVBL
$$

......................KEY........................................
  SKY/WX - SKY CONDITIONS/PRESENT WEATHER
  TMP    - TEMPERATURE IN FAHRENHEIT
  DWPT   - DEWPOINT IN FAHRENHEIT
  RH     - RELATIVE HUMIDITY IN PERCENT
  WIND   - DIRECTION AND SPEED /MPH FOR ISLANDS...KTS FOR BUOYS/
  PRES   - MEAN SEA LEVEL PRESSURE IN INCHES OF HG
  VSB    - VISIBILITY IN MILES
  HX     - HEAT INDEX
  WCI    - WIND CHILL INDEX
  VRB    - VARIABLE WIND DIRECTION
  N/A    - NOT AVAILABLE




USA.gov is the U.S. government's official web portal to all federal, state and local government web resources and services.